Location: *
(39.4667°N, 8.2000°W)
Time: 20:46:27
(UTC+00:00)

Daily predictions for brighter satellites

Satellite Brightness Start Highest point End
(mag) Time Altitude Azimuth Time Altitude Azimuth Time Altitude Azimuth
Resurs 01 Rocket 2.4 20:20:12 10° SE 20:24:15 36° ENE 20:28:19 10° N
ARGOS 3.4 20:19:04 10° SSE 20:24:19 54° ENE 20:29:34 10° N
Cosmos 371 Rocket 4.0 20:21:05 10° N 20:25:41 39° ENE 20:30:13 10° SE
Cosmos 1271 Rocket 2.8 20:23:39 10° S 20:27:27 59° E 20:31:20 10° NNE
Cosmos 2251 Rocket 4.0 20:23:47 10° SSE 20:28:35 38° ESE 20:33:25 10° NE
Cosmos 2058 3.5 20:26:40 10° SSE 20:30:32 38° E 20:34:27 10° NNE
Cosmos 1302 Rocket 4.2 20:29:24 10° N 20:34:33 56° ENE 20:39:38 10° SSE
Cosmos 2263 Rocket 3.2 20:29:57 10° N 20:35:02 32° ENE 20:40:05 10° ESE
Cosmos 332 Rocket 4.3 20:33:25 10° N 20:38:01 43° ENE 20:42:33 10° SE
Cosmos 2233 Rocket 4.0 20:32:38 10° S 20:38:55 83° E 20:45:16 10° N
IRIDIUM 103 4.4 20:35:36 10° N 20:40:48 65° E 20:45:58 10° SSE
Cosmos 2227 4.5 20:37:09 10° NNW 20:42:40 55° ENE 20:48:12 10° SE
SPOT 3 Rocket 4.4 20:39:10 10° S 20:44:13 51° W 20:49:20 10° NNW
Meteor 2-10 Rocket 4.3 20:40:44 10° NNW 20:46:08 60° W 20:51:43 10° S
Cosmos 1892 4.2 20:44:53 11° SE 20:47:32 20° E 20:50:22 10° NE
Cosmos 2221 3.3 20:43:41 10° NNW 20:47:57 54° W 20:52:13 10° S
SL-4 R/B 3.8 20:47:48 10° SSE 20:50:45 16° SE 20:53:44 10° E
Cosmos 1461 3.3 20:49:10 10° NNW 20:53:00 46° NE 20:56:11 14° SE
ADEOS Rocket 2.8 20:48:03 10° NNE 20:53:35 59° E 20:58:58 10° S
Cosmos 44 Rocket 4.0 20:49:11 10° S 20:53:50 36° ESE 20:58:27 10° NE
Cosmos 44 3.9 20:48:55 10° SW 20:54:12 66° WNW 20:59:17 10° NNE
IRIDIUM 106 4.4 20:53:53 10° N 20:59:08 85° W 21:04:21 10° S
Cosmos 1242 Rocket 2.9 20:56:40 10° SSE 21:00:08 45° E 21:03:40 10° NNE
Cosmos 1076 Rocket 4.4 20:56:12 10° SSW 21:00:28 53° W 21:04:46 10° N
USA 215 4.4 20:57:39 10° NE 21:03:51 47° NNW 21:10:04 10° WSW
CZ-2C R/B 3.2 20:58:45 10° SSE 21:04:08 65° ENE 21:09:17 10° N
MTI 3.6 21:02:31 10° NNE 21:05:40 71° ESE 21:08:49 10° S
Spot 2 Rocket 3.6 21:02:57 12° SSE 21:07:32 63° ENE 21:12:34 10° N
Tiangong 2 1.8 21:11:33 10° WNW 21:14:36 49° N 21:16:58 15° E
BREEZE-M DEB (TANK) 4.3 21:12:27 10° WNW 21:16:32 50° SSW 21:27:10 16° SE
DELTA 2 R/B (1) 3.9 21:12:22 10° SW 21:17:39 43° SSE 21:22:54 10° E
Cosmos 2360 Rocket 2.8 21:13:46 12° SSE 21:18:27 34° ESE 21:23:28 10° NE
Okean 3 Rocket 4.0 21:14:08 10° SSW 21:18:38 69° W 21:23:11 10° N
Aureole 1 Rocket 3.7 21:16:12 10° SSW 21:20:40 73° WNW 21:26:43 10° NNE
Cosmos 2151 2.9 21:17:11 10° S 21:21:26 81° E 21:25:45 10° N
MetOp-A 4.4 21:16:53 10° S 21:22:12 67° WSW 21:27:33 10° NNW
Cosmos 1980 Rocket 4.4 21:18:36 10° WSW 21:23:22 28° WNW 21:28:09 10° N
Cosmos 1743 Rocket 4.3 21:25:51 24° SE 21:27:35 33° E 21:31:30 10° NNE
SPOT 5 4.0 21:26:25 20° ESE 21:28:53 30° ENE 21:33:09 10° N
Cosmos 1340 Rocket 3.3 21:26:44 10° NNW 21:30:46 60° W 21:33:57 16° S
Cosmos 1464 Rocket 4.0 21:24:29 10° S 21:30:47 84° E 21:37:03 10° N
Cosmos 1869 3.9 21:27:04 10° NNW 21:30:56 53° W 21:34:14 13° S
USA 267 3.3 21:31:37 21° SE 21:36:17 80° NE 21:42:51 10° NW
Cosmos 1408 3.3 21:36:50 32° ESE 21:37:31 35° E 21:40:57 10° NNE
IGS 5A 4.2 21:37:07 28° ESE 21:38:34 37° ENE 21:42:25 10° N
Cosmos 1766 Rocket 4.2 21:34:56 10° SSW 21:39:10 55° W 21:43:26 10° N
Cosmos 1515 Rocket 3.9 21:35:23 10° N 21:39:35 46° E 21:41:09 32° SE
USA 245 2.4 21:42:07 50° NNE 21:42:07 50° NNE 21:43:57 10° N
NOSS 3-1 (C) 3.9 21:41:02 27° SE 21:42:38 31° ESE 21:47:51 10° NE
H-2A R/B 3.9 21:39:34 10° SSW 21:44:09 28° W 21:48:45 10° NW
CZ-2C R/B 2.5 21:40:58 10° NNE 21:46:13 79° ESE 21:50:21 16° S
Cosmos 1408 Rocket 3.8 21:43:15 13° SSW 21:47:03 68° W 21:51:21 10° N
Cosmos 2322 Rocket 2.7 21:42:25 10° SW 21:48:03 63° WNW 21:53:45 10° NNE
Cosmos 2219 Rocket 3.6 21:49:55 19° E 21:49:55 19° E 21:53:31 10° NE
Cosmos 1238 Rocket 4.4 21:44:28 10° SSW 21:50:56 69° W 21:57:34 10° N
Cosmos 2333 Rocket 3.6 21:52:21 20° E 21:52:21 20° E 21:56:04 10° NE
ISS -3.0 21:49:06 10° WSW 21:52:22 52° NW 21:55:39 10° NE
SL-16 R/B 3.1 21:47:52 10° SW 21:53:22 50° WNW 21:58:53 10° NNE
Cosmos 1825 2.5 21:53:35 42° ESE 21:53:50 42° E 21:57:24 10° NNE
Landsat 7 3.8 21:53:12 35° SSE 21:55:10 69° ENE 21:59:55 10° N
SWARM C 4.4 21:56:48 55° S 21:57:28 88° W 22:00:49 10° N
SWARM A 4.4 21:56:40 43° SSW 21:57:37 71° W 22:00:58 10° N
Cosmos 2228 Rocket 3.3 21:55:40 10° N 22:00:10 57° E 22:01:22 42° SE
Resurs 01 Rocket 3.9 21:57:38 10° SW 22:00:49 19° W 22:04:01 10° NW
Cosmos 2322 3.8 22:02:23 33° SSE 22:04:35 51° ESE 22:10:03 10° NNE
EO 1 Del DPAF 4.0 22:01:16 10° N 22:04:57 50° WNW 22:07:26 19° SW
Cosmos 407 Rocket 3.5 22:05:36 32° S 22:08:03 67° ESE 22:13:21 10° NNE
USA 81 4.4 22:03:06 10° N 22:08:14 49° E 22:09:36 39° SE
Meteor 2-11 Rocket 4.4 22:05:50 31° SSE 22:08:48 68° E 22:14:51 10° NNE
Thor Agena Rocket 3.4 22:03:52 10° NNE 22:08:56 87° WNW 22:11:54 25° SSW
Cosmos 1140 Rocket 3.8 22:08:25 40° ESE 22:09:06 42° ESE 22:13:58 10° NNE
CARTOSAT-1 3.5 22:09:29 51° SE 22:10:24 67° ENE 22:14:42 10° N
Cosmos 921 Rocket 3.3 22:07:33 10° NNW 22:11:46 60° WSW 22:13:03 40° SSW
Cosmos 1190 Rocket 3.9 22:11:12 38° S 22:13:08 67° ESE 22:18:19 10° NNE
MOS 1 Rocket 3.6 22:10:15 10° NNE 22:14:34 44° E 22:14:49 44° ESE
Cosmos 1844 Rocket 3.3 22:09:28 10° N 22:14:53 44° ENE 22:16:43 34° ESE
Cosmos 2263 Rocket 3.4 22:13:48 10° NW 22:18:56 35° WSW 22:21:59 21° SSW
Cosmos 1356 Rocket 3.4 22:14:45 10° N 22:19:02 73° E 22:19:35 63° SE
USA 229 DEB 3.5 22:12:51 10° SSW 22:19:22 79° ESE 22:26:12 10° NE
ERS-1 Rocket 3.2 22:17:30 36° S 22:19:29 67° WSW 22:24:31 10° NNW
USA 229 3.5 22:12:58 10° SSW 22:19:29 79° ESE 22:26:19 10° NE
Mayak 0.8 22:17:21 10° NE 22:18:55 16° ENE 22:18:55 16° ENE
Cosmos 292 Rocket 4.3 22:17:23 10° N 22:22:01 43° ENE 22:22:48 40° E
NOSS 3-1 (A) 3.6 22:22:47 41° ESE 22:22:51 41° ESE 22:28:29 10° NE
Cosmos 1151 Rocket 4.2 22:18:52 10° NNW 22:22:57 38° W 22:24:47 26° SW
Terra 1.8 22:23:20 54° SE 22:24:15 69° ENE 22:29:00 10° N
Cosmos 614 Rocket 3.8 22:22:37 41° S 22:24:26 83° ESE 22:29:32 10° NNE
Cosmos 2237 4.3 22:21:05 15° SSW 22:25:55 75° WNW 22:31:38 10° NNE
SL-4 R/B 2.3 22:25:08 10° SW 22:29:59 89° NW 22:34:48 10° NE
BREEZE-M DEB (TANK) 2.8 22:26:19 10° SW 22:30:29 87° NNW 22:36:05 10° NE
Landsat 4 3.6 22:28:17 10° N 22:31:56 81° NW 22:31:56 81° NW
Cosmos 1782 4.1 22:28:30 10° NNE 22:31:34 29° ENE 22:31:34 29° ENE
SPOT 1/Viking Rocket 4.1 22:32:13 34° SSW 22:34:08 50° W 22:39:10 10° NNW
Sich 1 3.6 22:37:16 44° ENE 22:37:16 44° ENE 22:40:50 10° NNE
Cosmos 1627 Rocket 4.4 22:33:17 10° N 22:39:28 77° E 22:41:11 50° SSE
SL-23 DEB 3.9 22:36:51 10° NW 22:40:17 60° NW 22:40:17 60° NW
SeaSat 1 4.3 22:40:22 10° ENE 22:42:01 17° ENE 22:42:01 17° ENE
COSMOS 2428 2.7 22:43:37 57° SE 22:44:18 61° ESE 22:49:56 10° NNE
Tiangong 2 3.6 22:48:16 10° WNW 22:49:07 17° W 22:49:07 17° W
Cosmos 1844 3.7 22:46:06 10° NNW 22:51:43 70° ENE 22:52:37 59° ESE
Cosmos 2279 Rocket 3.9 22:51:51 55° SSE 22:53:02 68° E 22:59:12 10° NNE
Cosmos 1818 4.2 22:49:40 10° NNW 22:54:55 46° NE 22:55:56 41° E
Cosmos 2360 Rocket 3.7 22:57:21 10° WSW 23:02:23 33° WNW 23:07:27 10° N
Cosmos 2237 Rocket 3.3 23:04:36 29° E 23:04:36 29° E 23:08:17 10° NE
DELTA 2 R/B (1) 3.4 22:58:15 10° W 23:03:52 86° S 23:05:00 58° E
SPOT 5 4.3 23:05:38 27° WSW 23:06:51 30° W 23:11:14 10° NW
Cosmos 1606 4.0 23:05:50 10° NNW 23:08:45 34° WNW 23:08:45 34° WNW
Cosmos 1707 Rocket 3.8 23:08:22 10° N 23:12:19 70° NNW 23:12:19 70° NNW
Cosmos 1867 3.9 23:16:23 51° ENE 23:16:23 51° ENE 23:20:51 10° NE
USA 267 4.4 23:18:58 26° SW 23:19:40 26° SW 23:25:00 10° WNW
Cosmos 1607 3.7 23:14:16 10° NNW 23:20:26 85° ENE 23:21:10 71° SE
Helios 1A 3.6 23:22:03 53° N 23:22:03 53° N 23:25:20 10° N
Meteor 1-27 Rocket 4.3 23:19:36 10° N 23:25:15 46° ENE 23:25:36 45° E
ISS -0.4 23:27:47 10° NW 23:29:39 14° NNW 23:31:30 10° NNE
ASTEX 1 4.4 23:26:53 10° N 23:31:30 39° WNW 23:32:17 36° W
Cosmos 1741 Rocket 4.1 23:32:52 65° NE 23:32:52 65° NE 23:37:27 10° NNE
Cosmos 2219 Rocket 2.7 23:31:35 44° WSW 23:33:04 56° WNW 23:38:39 10° NNE
NOSS 3-1 (C) 4.5 23:28:18 11° WSW 23:33:14 40° NW 23:39:10 10° NNE
Nimbus 7 Rocket 4.3 23:27:27 10° NNE 23:33:24 82° WNW 23:34:12 68° SW
NOSS 0 Rocket 3.7 23:35:28 77° SE 23:35:43 79° ESE 23:41:54 10° NNE
SL-8 R/B 4.1 23:30:57 10° NW 23:34:59 61° NNW 23:34:59 61° NNW
Cosmos 2333 Rocket 2.7 23:34:19 42° WSW 23:35:51 55° WNW 23:41:27 10° NNE
Cosmos 1655 Rocket 3.9 23:32:33 10° N 23:38:49 76° W 23:39:28 69° SW
Cosmos 2278 Rocket 2.4 23:37:06 10° NNW 23:42:43 58° ENE 23:42:53 58° ENE
Cosmos 1850 Rocket 4.0 23:43:55 79° NNW 23:43:55 79° NNW 23:49:02 10° NNE
Lacrosse 5 4.4 23:40:44 10° NNW 23:44:00 17° NNE 23:47:17 10° ENE
ALOS 2 3.5 23:49:45 44° NNE 23:49:45 44° NNE 23:53:01 10° N
Cosmos 1933 Rocket 4.5 23:54:12 46° N 23:54:12 46° N 23:57:19 10° N
Cosmos 1633 Rocket 4.4 23:54:31 33° WNW 23:54:31 33° WNW 23:57:59 10° N
Lacrosse 5 rocket 4.0 23:51:20 10° NNW 23:54:28 18° NNE 23:56:47 13° ENE
Mayak 0.2 23:52:05 10° N 23:55:30 34° WNW 23:55:30 34° WNW
